Weather History for KASH - October, 2011

Change the Weather History Date:

Wednesday, October 12, 2011

  Actual Average Record
Temperature  
Mean Temperature 53 °F -  
Max Temperature 59 °F 60 °F 86 °F (1954)
Min Temperature 47 °F 36 °F 21 °F (1956)
Degree Days  
Heating Degree Days 12    
Growing Degree Days 3 (Base 50)    
Moisture  
Dew Point 48 °F    
Average Humidity 81    
Maximum Humidity 96    
Minimum Humidity 57    
Precipitation  
Precipitation 0.00 in - - ()
Sea Level Pressure  
Sea Level Pressure 30.20 in    
Wind  
Wind Speed 5 mph (NNE)    
Max Wind Speed 10 mph    
Max Gust Speed -    
Visibility 9 miles    
Events      
Averages and records for this station are not official NWS values.
T = Trace of Precipitation, MM = Missing Value Source: NWS Daily Summary

Daily Weather History Graph

Daily Weather History Graph

Search for Another Location

Airport or City:

Trip Planner

Search our weather history database for the weather conditions in past years. The results will help you decide how hot, cold, wet, or windy it might be!

Date:

Astronomy

Oct. 12, 2011 Rise Set
Actual Time 6:55 AM EDT 6:09 PM EDT
Civil Twilight 6:27 AM EDT 6:37 PM EDT
Nautical Twilight 5:54 AM EDT 7:10 PM EDT
Astronomical Twilight 5:21 AM EDT 7:42 PM EDT
Moon 6:06 PM EDT (10/12) 7:29 AM EDT (10/12)
Length of Visible Light 12h 10m
Length of Day
11h 13m
Full, 100% of the Moon is Illuminated
Oct 12
Full
Oct 19
Last Quarter
Oct 26
New
Nov 2
First Quarter
Nov 10
Full

Hourly Weather History & Observations

Time (EDT) Temp. Dew Point Humidity Pressure Visibility Wind Dir Wind Speed Gust Speed Precip Events Conditions
12:51 AM 48.9 °F 46.9 °F 93% 30.27 in 10.0 mi NW 3.5 mph - N/A   Clear
1:51 AM 48.9 °F 46.9 °F 93% 30.27 in 10.0 mi NW 3.5 mph - N/A   Clear
2:51 AM 47.8 °F 45.9 °F 93% 30.26 in 10.0 mi NW 4.6 mph - N/A   Clear
3:51 AM 48.9 °F 45.9 °F 89% 30.26 in 10.0 mi NW 3.5 mph - N/A   Clear
4:51 AM 47.8 °F 45.9 °F 93% 30.26 in 10.0 mi NW 5.8 mph - N/A   Clear
5:51 AM 47.8 °F 45.9 °F 93% 30.27 in 10.0 mi NW 4.6 mph - N/A   Clear
7:51 AM 48.9 °F 46.9 °F 93% 30.28 in 10.0 mi NW 4.6 mph - N/A   Clear
8:51 AM 50.9 °F 47.8 °F 89% 30.28 in 10.0 mi Calm Calm - N/A   Clear
10:51 AM 55.9 °F 45.9 °F 69% 30.27 in 10.0 mi East 10.4 mph - 0.00 in   Mostly Cloudy
11:06 AM 57.2 °F 46.4 °F 67% 30.25 in 10.0 mi ENE 8.1 mph - N/A   Overcast
11:51 AM 56.8 °F 45.9 °F 67% 30.25 in 10.0 mi NE 5.8 mph - N/A   Overcast
12:06 PM 57.2 °F 46.4 °F 67% 30.24 in 10.0 mi NE 8.1 mph - N/A   Overcast
12:51 PM 57.9 °F 43.9 °F 60% 30.23 in 10.0 mi East 9.2 mph - N/A   Mostly Cloudy
1:39 PM 57.2 °F 46.4 °F 67% 30.20 in 10.0 mi ENE 8.1 mph - N/A   Mostly Cloudy
1:51 PM 57.9 °F 45.9 °F 64% 30.21 in 10.0 mi ENE 10.4 mph - N/A   Mostly Cloudy
2:51 PM 59.0 °F 45.0 °F 60% 30.21 in 10.0 mi ESE 8.1 mph - N/A   Mostly Cloudy
3:51 PM 59.0 °F 43.9 °F 57% 30.19 in 10.0 mi East 8.1 mph - N/A   Mostly Cloudy
4:51 PM 57.9 °F 45.9 °F 64% 30.19 in 10.0 mi East 8.1 mph - N/A   Clear
5:51 PM 55.9 °F 47.8 °F 74% 30.18 in 10.0 mi ENE 4.6 mph - N/A   Partly Cloudy
6:51 PM 54.9 °F 48.9 °F 80% 30.18 in 10.0 mi Variable 3.5 mph - N/A   Mostly Cloudy
7:22 PM 55.4 °F 48.2 °F 77% 30.17 in 10.0 mi North 3.5 mph - N/A   Overcast
7:51 PM 54.9 °F 48.9 °F 80% 30.17 in 10.0 mi NNE 3.5 mph - N/A   Overcast
8:08 PM 55.4 °F 50.0 °F 82% 30.16 in 10.0 mi North 3.5 mph - N/A   Overcast
8:32 PM 55.4 °F 50.0 °F 82% 30.15 in 10.0 mi NNE 3.5 mph - N/A   Overcast
8:51 PM 54.9 °F 50.0 °F 84% 30.15 in 10.0 mi Variable 4.6 mph - N/A   Mostly Cloudy
9:10 PM 55.4 °F 51.8 °F 88% 30.13 in 10.0 mi NE 4.6 mph - N/A   Overcast
9:34 PM 55.4 °F 51.8 °F 88% 30.13 in 10.0 mi NE 3.5 mph - N/A   Overcast
9:44 PM 55.4 °F 51.8 °F 88% 30.13 in 10.0 mi NNE 4.6 mph - N/A   Overcast
9:51 PM 54.9 °F 52.0 °F 90% 30.14 in 10.0 mi North 4.6 mph - N/A   Overcast
10:22 PM 55.4 °F 53.6 °F 94% 30.12 in 2.0 mi NE 4.6 mph - N/A   Overcast
10:29 PM 55.4 °F 53.6 °F 94% 30.12 in 1.8 mi Variable 5.8 mph - N/A   Overcast
10:51 PM 54.9 °F 52.9 °F 93% 30.12 in 2.0 mi NE 4.6 mph - N/A   Mostly Cloudy
11:51 PM 55.9 °F 54.9 °F 96% 30.12 in 2.0 mi East 5.8 mph - N/A   Overcast